Northolt, United Kingdom

2:02 AM BST on September 23, 2017 (GMT +0100)
Northolt Air Base

Weather History for EGWU - December, 2013

Change the Weather History Date:

Thursday, December 12, 2013

  Actual Average Record
Temperature  
Mean Temperature 36 °F -  
Max Temperature 48 °F 44 °F 57 °F (1998)
Min Temperature 25 °F 36 °F 23 °F (2007)
Degree Days  
Heating Degree Days 28    
Moisture  
Dew Point 39 °F    
Average Humidity 95    
Maximum Humidity 100    
Minimum Humidity 87    
Precipitation  
Precipitation 0.01 in - - ()
Sea Level Pressure  
Sea Level Pressure 30.24 in    
Wind  
Wind Speed 2 mph ()    
Max Wind Speed 7 mph    
Max Gust Speed -    
Visibility 1.6 miles    
Events Fog    
Averages and records for this station are not official NWS values.
T = Trace of Precipitation, MM = Missing Value Source: Averaged Metar Reports

Daily Weather History Graph

Daily Weather History Graph

Search for Another Location

Airport or City:

Trip Planner

Search our weather history database for the weather conditions in past years. The results will help you decide how hot, cold, wet, or windy it might be!

Date:

Astronomy

Dec. 12, 2013 Rise Set
Actual Time 7:58 AM GMT 3:52 PM GMT
Civil Twilight 7:18 AM GMT 4:32 PM GMT
Nautical Twilight 6:35 AM GMT 5:15 PM GMT
Astronomical Twilight 5:54 AM GMT 5:56 PM GMT
Moon 1:15 PM GMT (12/12) 2:38 AM GMT (12/12)
Length of Visible Light 9h 14m
Length of Day
7h 53m
Waxing Gibbous, 78% of the Moon is Illuminated
Dec 12
Waxing Gibbous
Dec 17
Full
Dec 25
Last Quarter
Jan 1
New
Jan 8
First Quarter

Hourly Weather History & Observations

Time (GMT) Temp. Windchill Dew Point Humidity Pressure Visibility Wind Dir Wind Speed Gust Speed Precip Events Conditions
12:00 AM 28 °F - 28 °F 99% 30.33 in 1 mi East 2.3 mph - -  
12:50 AM 26.6 °F - 26.6 °F 100% 30.30 in 1.2 mi Calm Calm - N/A   Unknown
1:50 AM 26.6 °F - 26.6 °F 100% 30.30 in - Calm Calm - N/A   Unknown
2:50 AM 26.6 °F - 26.6 °F 100% 30.27 in 1.8 mi Calm Calm - N/A   Unknown
3:00 AM 26 °F - 26 °F 100% 30.31 in 2 mi Calm Calm - -  
3:50 AM 26.6 °F - 24.8 °F 93% 30.27 in 2.8 mi Calm Calm - N/A   Unknown
4:50 AM 26.6 °F - 26.6 °F 100% 30.27 in 0.6 mi Calm Calm - N/A   Unknown
5:50 AM 26.6 °F - 26.6 °F 100% 30.27 in 0.1 mi Calm Calm - N/A   Unknown
6:00 AM 26 °F - 26 °F 98% 30.28 in 0 mi Calm Calm - -  
6:50 AM 30.2 °F - 30.2 °F 100% 30.27 in 0.6 mi Calm Calm - N/A Fog Patches of Fog
7:02 AM 32.0 °F - 30.2 °F 93% 30.27 in 1.2 mi Calm Calm - N/A   Mostly Cloudy
7:50 AM 35.6 °F - 33.8 °F 93% 30.27 in 1.2 mi SSW 2.3 mph - N/A   Overcast
8:50 AM 41.0 °F 37.1 °F 41.0 °F 100% 30.27 in 1.0 mi SW 5.8 mph - N/A   Overcast
9:00 AM 41 °F - 40 °F 95% 30.28 in 1 mi SW 5.8 mph - -   Mist
9:50 AM 42.8 °F 38.6 °F 41.0 °F 93% 30.27 in 1.0 mi SSW 6.9 mph - N/A   Overcast
10:50 AM 44.6 °F 40.7 °F 42.8 °F 93% 30.24 in 1.0 mi SSW 6.9 mph - N/A   Overcast
11:26 AM 42.8 °F 40.1 °F 42.8 °F 100% 30.24 in 0.7 mi South 4.6 mph - N/A   Overcast
11:35 AM 42.8 °F 41.1 °F 42.8 °F 100% 30.24 in 0.7 mi SSE 3.5 mph - N/A   Overcast
11:50 AM 42.8 °F 41.1 °F 42.8 °F 100% 30.24 in 0.6 mi SE 3.5 mph - N/A   Overcast
12:00 PM 43 °F - 42 °F 96% 30.27 in 1 mi SE 3.5 mph - -   Mist
12:02 PM 42.8 °F 41.1 °F 42.8 °F 100% 30.24 in 0.6 mi SE 3.5 mph - N/A   Overcast
12:50 PM 44.6 °F - 44.6 °F 100% 30.24 in 1.9 mi SSE 1.2 mph - N/A   Mostly Cloudy
1:24 PM 46.4 °F 44.3 °F 44.6 °F 93% 30.24 in 3.1 mi SSE 4.6 mph - N/A   Haze
1:50 PM 48.2 °F - 44.6 °F 87% 30.21 in 3.7 mi SSW 6.9 mph - N/A   Haze
2:50 PM 48.2 °F - 44.6 °F 87% 30.21 in 3.1 mi South 5.8 mph - N/A   Haze
3:00 PM 47 °F - 45 °F 89% 30.24 in 3 mi South 5.8 mph - -   Haze
3:50 PM 46.4 °F 45.2 °F 44.6 °F 93% 30.21 in 2.8 mi South 3.5 mph - N/A   Haze
4:42 PM 46.4 °F - 44.6 °F 93% 30.21 in 2.2 mi SSE 2.3 mph - N/A   Haze
4:50 PM 44.6 °F 43.1 °F 42.8 °F 93% 30.21 in 2.5 mi SE 3.5 mph - N/A   Haze
5:17 PM 44.6 °F 43.1 °F 42.8 °F 93% 30.21 in 1.5 mi ESE 3.5 mph - N/A   Haze
5:50 PM 42.8 °F 41.1 °F 42.8 °F 100% 30.21 in 1.9 mi SE 3.5 mph - N/A   Mostly Cloudy
6:00 PM 43 °F - 42 °F 94% 30.24 in 1 mi SE 3.5 mph - -   Mist
6:27 PM 39.2 °F - 39.2 °F 100% 30.21 in 0.7 mi ESE 2.3 mph - N/A Fog Fog
6:50 PM 41.0 °F - 39.2 °F 93% 30.21 in 0.9 mi ESE 2.3 mph - N/A Fog Fog
7:17 PM 42.8 °F 41.1 °F 41.0 °F 93% 30.21 in 1.9 mi SSE 3.5 mph - N/A Fog Shallow Fog
7:27 PM 39.2 °F - 39.2 °F 100% 30.21 in 0.6 mi SE 1.2 mph - N/A Fog Fog
7:41 PM 42.8 °F 41.1 °F 41.0 °F 93% 30.21 in 1.9 mi SSE 3.5 mph - N/A Fog Shallow Fog
7:50 PM 42.8 °F 41.1 °F 41.0 °F 93% 30.21 in 1.9 mi SSE 3.5 mph - N/A Fog Shallow Fog
8:19 PM 44.6 °F 43.1 °F 42.8 °F 93% 30.21 in 2.5 mi South 3.5 mph - N/A   Mostly Cloudy
8:50 PM 42.8 °F - 42.8 °F 100% 30.21 in 1.6 mi South 1.2 mph - N/A   Mostly Cloudy
8:56 PM 42.8 °F - 41.0 °F 93% 30.21 in 1.9 mi Calm Calm - N/A Fog Shallow Fog
9:00 PM 44 °F - 43 °F 93% 30.22 in 2 mi South 1.2 mph - -   Mist
9:14 PM 44.6 °F - 42.8 °F 93% 30.21 in 0.5 mi South 1.2 mph - N/A Fog Patches of Fog
9:17 PM 44.6 °F - 42.8 °F 93% 30.21 in 1.9 mi SSW 1.2 mph - N/A Fog Patches of Fog
9:50 PM 46.4 °F - 44.6 °F 93% 30.21 in 3.1 mi South 2.3 mph - N/A   Mostly Cloudy
10:50 PM 46.4 °F 45.2 °F 44.6 °F 93% 30.21 in 3.1 mi SE 3.5 mph - N/A   Mostly Cloudy
11:50 PM 48.2 °F - 44.6 °F 87% 30.18 in 3.7 mi SSW 5.8 mph - N/A   Mostly Cloudy